AVA344 KFLL-MGGT

Flight info

Callsign AVA344
Flight time N/A
Altitude 36000
Route GLADZ4 LULLS Y262 MAXIM UG765 TIKIS TIKIS2C
Aircraft A320/M-SDE3FGHIRWY/L

Departure

Time 2026-05-05 22:19
Airport Fort Lauderdale Hollywood International Airport (KFLL)

Arrival

Time N/A
Airport La Aurora International Airport (MGGT)
Time Latitude Longitude Altitude Speed Heading
2026-05-05 21:58 26.06904 -80.14584 18 ft 0 kts 35°
2026-05-05 22:01 26.06898 -80.14588 16 ft 4 kts 34°
2026-05-05 22:01 26.06875 -80.14603 18 ft 4 kts 21°
2026-05-05 22:01 26.06850 -80.14610 16 ft 4 kts 354°
2026-05-05 22:02 26.06831 -80.14603 19 ft 1 kts 315°
2026-05-05 22:02 26.06828 -80.14599 19 ft 0 kts 315°
2026-05-05 22:04 26.06840 -80.14612 18 ft 11 kts 315°
2026-05-05 22:05 26.06905 -80.14681 16 ft 12 kts 319°
2026-05-05 22:05 26.06934 -80.14706 16 ft 0 kts 323°
2026-05-05 22:11 26.06948 -80.14718 17 ft 9 kts 323°
2026-05-05 22:12 26.07000 -80.14761 16 ft 9 kts 320°
2026-05-05 22:12 26.07037 -80.14804 16 ft 7 kts 312°
2026-05-05 22:12 26.07076 -80.14846 16 ft 7 kts 322°
2026-05-05 22:12 26.07128 -80.14857 16 ft 10 kts
2026-05-05 22:13 26.07203 -80.14853 16 ft 11 kts
2026-05-05 22:13 26.07280 -80.14852 16 ft 11 kts
2026-05-05 22:13 26.07357 -80.14852 16 ft 11 kts 360°
2026-05-05 22:13 26.07432 -80.14832 16 ft 11 kts 20°
2026-05-05 22:14 26.07483 -80.14875 16 ft 10 kts 271°
2026-05-05 22:14 26.07484 -80.14938 16 ft 9 kts 279°
2026-05-05 22:14 26.07488 -80.15032 16 ft 14 kts 271°
2026-05-05 22:14 26.07489 -80.15136 16 ft 13 kts 270°
2026-05-05 22:15 26.07490 -80.15228 16 ft 11 kts 270°
2026-05-05 22:15 26.07491 -80.15310 15 ft 10 kts 271°
2026-05-05 22:15 26.07493 -80.15380 15 ft 8 kts 271°
2026-05-05 22:15 26.07493 -80.15439 15 ft 7 kts 268°
2026-05-05 22:16 26.07492 -80.15485 16 ft 5 kts 269°
2026-05-05 22:16 26.07491 -80.15542 16 ft 14 kts 270°
2026-05-05 22:16 26.07492 -80.15681 16 ft 18 kts 269°
2026-05-05 22:16 26.07491 -80.15810 16 ft 16 kts 271°
2026-05-05 22:17 26.07493 -80.15925 16 ft 14 kts 271°
2026-05-05 22:17 26.07494 -80.16026 16 ft 12 kts 270°
2026-05-05 22:17 26.07494 -80.16115 16 ft 11 kts 270°
2026-05-05 22:17 26.07505 -80.16189 16 ft 10 kts 306°
2026-05-05 22:18 26.07573 -80.16273 17 ft 16 kts 297°
2026-05-05 22:18 26.07658 -80.16298 20 ft 13 kts 17°
2026-05-05 22:18 26.07693 -80.16071 19 ft 64 kts 91°
2026-05-05 22:18 26.07690 -80.15295 16 ft 133 kts 90°
2026-05-05 22:19 26.07675 -80.14136 388 ft 160 kts 92°
2026-05-05 22:19 26.07630 -80.12801 869 ft 186 kts 91°
2026-05-05 22:19 26.07663 -80.11306 1423 ft 199 kts 85°
2026-05-05 22:19 26.07832 -80.09751 2102 ft 206 kts 78°
2026-05-05 22:20 26.08399 -80.08253 2718 ft 217 kts 60°
2026-05-05 22:20 26.09490 -80.07034 3381 ft 226 kts 36°
2026-05-05 22:20 26.10927 -80.06271 4121 ft 237 kts 25°
2026-05-05 22:20 26.12554 -80.05643 4533 ft 259 kts 22°
2026-05-05 22:21 26.14294 -80.04958 4939 ft 267 kts 20°
2026-05-05 22:21 26.16114 -80.04594 5341 ft 266 kts
2026-05-05 22:21 26.17861 -80.05005 5851 ft 258 kts 340°
2026-05-05 22:21 26.19496 -80.05813 6394 ft 251 kts 338°
2026-05-05 22:22 26.21030 -80.06719 6549 ft 260 kts 322°
2026-05-05 22:22 26.22348 -80.08137 6566 ft 268 kts 306°
2026-05-05 22:22 26.23317 -80.09934 6772 ft 280 kts 292°
2026-05-05 22:22 26.24050 -80.12032 7056 ft 302 kts 291°
2026-05-05 22:23 26.24848 -80.14293 7315 ft 324 kts 290°
2026-05-05 22:23 26.25378 -80.16795 7672 ft 340 kts 274°
2026-05-05 22:23 26.25369 -80.19454 8150 ft 345 kts 266°
2026-05-05 22:23 26.24850 -80.22103 8484 ft 362 kts 248°
2026-05-05 22:24 26.23429 -80.24507 8758 ft 382 kts 227°
2026-05-05 22:24 26.21506 -80.26556 9526 ft 382 kts 226°
2026-05-05 22:24 26.19627 -80.28565 10364 ft 377 kts 226°
2026-05-05 22:24 26.17723 -80.30620 11084 ft 377 kts 227°
2026-05-05 22:25 26.15869 -80.32630 11769 ft 377 kts 227°
2026-05-05 22:25 26.13990 -80.34673 12467 ft 378 kts 227°
2026-05-05 22:25 26.12110 -80.36716 13152 ft 379 kts 227°
2026-05-05 22:25 26.10189 -80.38799 13333 ft 394 kts 227°
2026-05-05 22:26 26.08192 -80.40963 13466 ft 407 kts 227°
2026-05-05 22:26 26.06135 -80.43188 13599 ft 418 kts 227°
2026-05-05 22:26 26.04029 -80.45462 13843 ft 425 kts 227°
2026-05-05 22:26 26.01901 -80.47752 14185 ft 428 kts 227°
2026-05-05 22:27 25.99756 -80.50055 14554 ft 430 kts 227°
2026-05-05 22:27 25.97597 -80.52372 14909 ft 432 kts 227°
2026-05-05 22:27 25.95432 -80.54701 15288 ft 434 kts 227°
2026-05-05 22:27 25.93263 -80.57036 15658 ft 435 kts 227°
2026-05-05 22:28 25.91078 -80.59388 16032 ft 438 kts 227°
2026-05-05 22:28 25.88915 -80.61716 16456 ft 440 kts 227°
2026-05-05 22:28 25.86706 -80.64089 16825 ft 443 kts 227°
2026-05-05 22:28 25.84479 -80.66478 17204 ft 447 kts 227°
2026-05-05 22:29 25.82238 -80.68880 17555 ft 449 kts 227°
2026-05-05 22:29 25.80069 -80.71373 17847 ft 448 kts 234°
2026-05-05 22:29 25.78368 -80.74249 18128 ft 446 kts 246°
2026-05-05 22:29 25.77245 -80.77435 18406 ft 443 kts 256°
2026-05-05 22:30 25.76369 -80.80725 18663 ft 445 kts 256°
2026-05-05 22:30 25.75488 -80.84019 18936 ft 446 kts 256°
2026-05-05 22:30 25.74594 -80.87320 19202 ft 448 kts 256°
2026-05-05 22:30 25.73688 -80.90632 19455 ft 449 kts 256°
2026-05-05 22:31 25.72774 -80.93952 19703 ft 451 kts 256°
2026-05-05 22:31 25.71857 -80.97279 19942 ft 452 kts 256°
2026-05-05 22:31 25.70952 -81.00568 20159 ft 453 kts 256°
2026-05-05 22:31 25.70035 -81.03916 20367 ft 454 kts 256°
2026-05-05 22:32 25.69117 -81.07274 20578 ft 456 kts 256°
2026-05-05 22:32 25.67911 -81.10530 20863 ft 459 kts 243°
2026-05-05 22:32 25.65991 -81.13317 21601 ft 455 kts 230°
2026-05-05 22:32 25.63523 -81.15525 22036 ft 458 kts 218°
2026-05-05 22:33 25.60858 -81.17448 22462 ft 456 kts 217°
2026-05-05 22:33 25.58186 -81.19330 22893 ft 455 kts 217°
2026-05-05 22:33 25.55511 -81.21186 23337 ft 453 kts 217°
2026-05-05 22:33 25.52849 -81.23030 23737 ft 451 kts 217°
2026-05-05 22:34 25.50195 -81.24877 24111 ft 449 kts 217°
2026-05-05 22:34 25.47595 -81.26698 24482 ft 447 kts 218°
2026-05-05 22:34 25.44979 -81.28540 24865 ft 445 kts 218°
2026-05-05 22:34 25.42370 -81.30378 25244 ft 444 kts 218°
2026-05-05 22:35 25.39771 -81.32206 25623 ft 442 kts 218°
2026-05-05 22:35 25.37183 -81.34027 26012 ft 440 kts 218°
2026-05-05 22:35 25.34598 -81.35843 26423 ft 439 kts 218°
2026-05-05 22:35 25.32026 -81.37649 26829 ft 437 kts 218°
2026-05-05 22:36 25.29461 -81.39449 27241 ft 436 kts 218°
2026-05-05 22:36 25.26908 -81.41243 27659 ft 434 kts 218°
2026-05-05 22:36 25.24365 -81.43028 28083 ft 432 kts 218°
2026-05-05 22:36 25.21831 -81.44804 28515 ft 431 kts 218°
2026-05-05 22:37 25.19306 -81.46574 28948 ft 429 kts 218°
2026-05-05 22:37 25.16824 -81.48307 29387 ft 427 kts 218°
2026-05-05 22:37 25.14321 -81.50057 29841 ft 425 kts 218°
2026-05-05 22:37 25.11831 -81.51800 30266 ft 423 kts 218°
2026-05-05 22:38 25.09352 -81.53534 30657 ft 421 kts 219°
2026-05-05 22:38 25.06886 -81.55255 31032 ft 418 kts 218°
2026-05-05 22:38 25.04432 -81.56967 31440 ft 416 kts 219°
2026-05-05 22:38 25.01996 -81.58668 31846 ft 414 kts 219°
2026-05-05 22:39 24.99572 -81.60360 32261 ft 411 kts 219°
2026-05-05 22:39 24.97162 -81.62039 32680 ft 408 kts 219°
2026-05-05 22:39 24.94771 -81.63705 33106 ft 405 kts 219°
2026-05-05 22:39 24.92403 -81.65356 33504 ft 402 kts 220°
2026-05-05 22:40 24.90032 -81.67007 33742 ft 404 kts 220°
2026-05-05 22:40 24.87651 -81.68664 33949 ft 406 kts 220°
2026-05-05 22:40 24.85293 -81.70306 34136 ft 408 kts 220°
2026-05-05 22:40 24.82892 -81.71976 34323 ft 409 kts 220°
2026-05-05 22:41 24.80479 -81.73651 34512 ft 410 kts 220°
2026-05-05 22:41 24.78059 -81.75331 34689 ft 412 kts 220°
2026-05-05 22:41 24.75632 -81.77014 34841 ft 414 kts 219°
2026-05-05 22:41 24.73193 -81.78708 35022 ft 415 kts 220°
2026-05-05 22:42 24.70749 -81.80408 35192 ft 416 kts 220°
2026-05-05 22:42 24.68296 -81.82112 35369 ft 418 kts 220°
2026-05-05 22:42 24.65839 -81.83818 35534 ft 419 kts 220°
2026-05-05 22:42 24.63372 -81.85529 35701 ft 420 kts 220°
2026-05-05 22:43 24.60894 -81.87244 35870 ft 421 kts 220°
2026-05-05 22:43 24.58444 -81.88938 36002 ft 423 kts 220°
2026-05-05 22:43 24.55941 -81.90668 36030 ft 428 kts 220°
2026-05-05 22:44 24.50835 -81.94194 36032 ft 437 kts 219°
2026-05-05 22:44 24.46174 -81.98292 36037 ft 423 kts 235°
2026-05-05 22:45 24.42154 -82.03013 36025 ft 423 kts 234°
2026-05-05 22:45 24.38120 -82.07720 36022 ft 424 kts 234°
2026-05-05 22:46 24.34078 -82.12426 36026 ft 424 kts 234°
2026-05-05 22:46 24.30060 -82.17089 36026 ft 424 kts 234°
2026-05-05 22:47 24.26008 -82.21782 36020 ft 424 kts 234°
2026-05-05 22:47 24.21958 -82.26479 36030 ft 424 kts 234°
2026-05-05 22:48 24.18599 -82.30380 36012 ft 424 kts 234°
2026-05-05 22:48 24.14546 -82.35076 36007 ft 424 kts 234°
2026-05-05 22:49 24.10492 -82.39776 36014 ft 425 kts 234°
2026-05-05 22:49 24.06428 -82.44472 36010 ft 425 kts 234°
2026-05-05 22:50 24.02353 -82.49164 36000 ft 425 kts 234°
2026-05-05 22:50 23.98302 -82.53885 36033 ft 427 kts 237°
2026-05-05 22:51 23.94763 -82.59005 36097 ft 435 kts 235°
2026-05-05 22:51 23.90756 -82.64062 36024 ft 443 kts 237°
2026-05-05 22:52 23.86819 -82.69233 36023 ft 444 kts 237°
2026-05-05 22:52 23.84864 -82.71797 36014 ft 433 kts 237°
2026-05-05 22:52 23.82943 -82.74296 36022 ft 427 kts 237°
2026-05-05 22:53 23.79130 -82.79230 36019 ft 424 kts 237°
2026-05-05 22:53 23.75323 -82.84141 36023 ft 424 kts 237°
2026-05-05 22:54 23.71514 -82.89052 36023 ft 424 kts 237°
2026-05-05 22:54 23.67728 -82.93924 36023 ft 424 kts 237°
2026-05-05 22:55 23.63914 -82.98829 36022 ft 424 kts 237°
2026-05-05 22:55 23.60106 -83.03737 36024 ft 424 kts 237°
2026-05-05 22:56 23.56294 -83.08643 36008 ft 424 kts 237°
2026-05-05 22:56 23.52469 -83.13545 36009 ft 425 kts 237°
2026-05-05 22:57 23.48672 -83.18429 36005 ft 425 kts 237°
2026-05-05 22:57 23.44851 -83.23349 36006 ft 425 kts 237°
2026-05-05 22:58 23.41021 -83.28267 36010 ft 426 kts 237°
2026-05-05 22:58 23.37191 -83.33180 36016 ft 426 kts 237°
2026-05-05 22:59 23.33364 -83.38097 36019 ft 426 kts 237°
2026-05-05 22:59 23.29535 -83.43009 36022 ft 426 kts 237°
2026-05-05 23:00 23.23798 -83.50346 36006 ft 427 kts 236°
2026-05-05 23:00 23.19952 -83.55261 36000 ft 427 kts 236°
2026-05-05 23:01 23.16100 -83.60182 36018 ft 427 kts 236°
2026-05-05 23:01 23.12247 -83.65103 36024 ft 428 kts 236°
2026-05-05 23:02 23.08387 -83.70021 36019 ft 428 kts 236°
2026-05-05 23:02 23.04547 -83.74903 36021 ft 428 kts 236°
2026-05-05 23:03 23.00690 -83.79818 36017 ft 428 kts 236°
2026-05-05 23:03 22.96825 -83.84728 35995 ft 428 kts 236°
2026-05-05 23:04 22.92956 -83.89644 35998 ft 429 kts 236°
2026-05-05 23:04 22.89078 -83.94563 35996 ft 429 kts 235°
2026-05-05 23:05 22.85195 -83.99479 36004 ft 429 kts 235°
2026-05-05 23:05 22.81334 -84.04366 36008 ft 429 kts 235°
2026-05-05 23:06 22.77441 -84.09276 36011 ft 429 kts 235°
2026-05-05 23:06 22.73551 -84.14190 36014 ft 429 kts 236°
2026-05-05 23:07 22.69708 -84.19132 36019 ft 429 kts 236°
2026-05-05 23:07 22.65889 -84.24097 36000 ft 429 kts 236°
2026-05-05 23:08 22.62075 -84.29070 35999 ft 430 kts 236°
2026-05-05 23:08 22.58280 -84.34019 36006 ft 430 kts 236°
2026-05-05 23:09 22.54448 -84.38990 36011 ft 430 kts 236°
2026-05-05 23:09 22.50612 -84.43959 36015 ft 430 kts 236°
2026-05-05 23:10 22.46778 -84.48929 36017 ft 430 kts 236°
2026-05-05 23:10 22.42943 -84.53896 36015 ft 430 kts 236°
2026-05-05 23:11 22.39108 -84.58860 36017 ft 430 kts 236°
2026-05-05 23:11 22.35273 -84.63827 36004 ft 430 kts 235°
2026-05-05 23:12 22.31430 -84.68792 36005 ft 431 kts 235°
2026-05-05 23:12 22.27606 -84.73726 36011 ft 431 kts 235°
2026-05-05 23:13 22.23758 -84.78687 36011 ft 431 kts 235°
2026-05-05 23:13 22.19899 -84.83647 36011 ft 431 kts 235°
2026-05-05 23:14 22.16044 -84.88606 36013 ft 431 kts 235°
2026-05-05 23:14 22.12193 -84.93569 36014 ft 431 kts 235°
2026-05-05 23:15 22.08343 -84.98527 36017 ft 431 kts 234°
2026-05-05 23:15 22.04503 -85.03444 36006 ft 431 kts 234°
2026-05-05 23:16 22.00634 -85.08392 36006 ft 432 kts 234°
2026-05-05 23:16 21.96759 -85.13346 36001 ft 432 kts 234°
2026-05-05 23:17 21.92891 -85.18296 36004 ft 432 kts 234°
2026-05-05 23:17 21.89014 -85.23248 36007 ft 432 kts 234°
2026-05-05 23:18 21.85174 -85.28167 36011 ft 432 kts 234°
2026-05-05 23:18 21.81300 -85.33121 36012 ft 432 kts 234°
2026-05-05 23:19 21.77422 -85.38062 36012 ft 432 kts 234°
2026-05-05 23:19 21.73534 -85.43003 36007 ft 432 kts 233°
2026-05-05 23:20 21.69655 -85.47944 36002 ft 432 kts 233°
2026-05-05 23:20 21.65795 -85.52850 36004 ft 433 kts 233°
2026-05-05 23:21 21.61906 -85.57785 36007 ft 433 kts 233°
2026-05-05 23:21 21.58018 -85.62718 36008 ft 433 kts 233°
2026-05-05 23:22 21.54137 -85.67656 36009 ft 433 kts 233°
2026-05-05 23:22 21.50245 -85.72586 36010 ft 433 kts 233°
2026-05-05 23:23 21.46336 -85.77443 36008 ft 433 kts 232°
2026-05-05 23:23 21.42308 -85.82259 36008 ft 433 kts 231°
2026-05-05 23:24 21.38267 -85.87059 36006 ft 433 kts 232°
2026-05-05 23:24 21.34241 -85.91876 36004 ft 433 kts 232°
2026-05-05 23:25 21.30230 -85.96698 36006 ft 433 kts 232°
2026-05-05 23:25 21.26219 -86.01522 36006 ft 433 kts 232°
2026-05-05 23:26 21.22226 -86.06301 36005 ft 433 kts 232°
2026-05-05 23:26 21.18199 -86.11109 36004 ft 433 kts 232°
2026-05-05 23:27 21.14175 -86.15916 36003 ft 433 kts 232°
2026-05-05 23:27 21.10153 -86.20723 36000 ft 433 kts 232°
2026-05-05 23:28 21.06134 -86.25529 35994 ft 433 kts 231°
2026-05-05 23:28 21.02136 -86.30302 35994 ft 433 kts 231°
2026-05-05 23:29 20.98105 -86.35102 35999 ft 434 kts 231°
2026-05-05 23:29 20.94072 -86.39901 36001 ft 434 kts 231°
2026-05-05 23:30 20.90046 -86.44701 36000 ft 434 kts 231°
2026-05-05 23:30 20.86017 -86.49503 35997 ft 434 kts 231°
2026-05-05 23:31 20.81977 -86.54293 36002 ft 434 kts 231°
2026-05-05 23:31 20.77929 -86.59074 35998 ft 434 kts 231°
2026-05-05 23:32 20.73906 -86.63820 35994 ft 434 kts 231°
2026-05-05 23:32 20.69867 -86.68604 35994 ft 434 kts 231°
2026-05-05 23:33 20.65828 -86.73394 35994 ft 434 kts 231°
2026-05-05 23:33 20.61777 -86.78178 35998 ft 434 kts 231°
2026-05-05 23:34 20.57733 -86.82956 36003 ft 434 kts 231°
2026-05-05 23:34 20.53686 -86.87741 36004 ft 434 kts 231°
2026-05-05 23:35 20.49332 -86.92215 36004 ft 438 kts 218°
2026-05-05 23:35 20.44306 -86.95841 35995 ft 439 kts 216°
2026-05-05 23:36 20.39240 -86.99491 35992 ft 439 kts 217°
2026-05-05 23:36 20.34180 -87.03149 35985 ft 440 kts 217°
2026-05-05 23:37 20.29118 -87.06802 35981 ft 440 kts 217°
2026-05-05 23:37 20.24046 -87.10448 35984 ft 440 kts 217°
2026-05-05 23:38 20.18971 -87.14088 35983 ft 440 kts 217°
2026-05-05 23:38 20.13929 -87.17709 35981 ft 440 kts 217°
2026-05-05 23:39 20.08856 -87.21350 35976 ft 440 kts 216°
2026-05-05 23:39 20.03779 -87.24999 35972 ft 441 kts 216°
2026-05-05 23:40 19.98701 -87.28653 35973 ft 441 kts 216°
2026-05-05 23:40 19.93614 -87.32297 35975 ft 441 kts 216°
2026-05-05 23:41 19.88520 -87.35936 35978 ft 441 kts 216°
2026-05-05 23:41 19.83463 -87.39548 35980 ft 441 kts 216°
2026-05-05 23:42 19.78379 -87.43189 35983 ft 441 kts 216°
2026-05-05 23:42 19.73291 -87.46829 35972 ft 441 kts 216°
2026-05-05 23:43 19.68198 -87.50463 35973 ft 441 kts 216°
2026-05-05 23:43 19.63102 -87.54099 35974 ft 441 kts 216°
2026-05-05 23:44 19.58013 -87.57737 35970 ft 441 kts 216°
2026-05-05 23:44 19.52945 -87.61349 35971 ft 441 kts 216°
2026-05-05 23:45 19.47843 -87.64971 35970 ft 441 kts 216°
2026-05-05 23:45 19.42740 -87.68594 35965 ft 442 kts 216°
2026-05-05 23:46 19.37634 -87.72213 35960 ft 442 kts 216°
2026-05-05 23:46 19.32530 -87.75836 35962 ft 441 kts 216°
2026-05-05 23:47 19.27431 -87.79453 35966 ft 441 kts 216°
2026-05-05 23:47 19.22330 -87.83070 35967 ft 441 kts 216°
2026-05-05 23:48 19.17257 -87.86653 35963 ft 441 kts 216°
2026-05-05 23:48 19.12152 -87.90257 35962 ft 441 kts 216°
2026-05-05 23:49 19.07051 -87.93864 35960 ft 441 kts 215°
2026-05-05 23:49 19.01948 -87.97470 35963 ft 441 kts 215°
2026-05-05 23:50 18.96848 -88.01078 35960 ft 441 kts 215°
2026-05-05 23:50 18.91774 -88.04651 35954 ft 441 kts 215°
2026-05-05 23:51 18.86664 -88.08244 35953 ft 441 kts 215°
2026-05-05 23:51 18.81560 -88.11842 35957 ft 441 kts 215°
2026-05-05 23:52 18.76455 -88.15436 35957 ft 441 kts 215°
2026-05-05 23:52 18.71356 -88.19027 35957 ft 441 kts 214°
2026-05-05 23:53 18.66247 -88.22611 35961 ft 441 kts 214°
2026-05-05 23:53 18.61179 -88.26170 35956 ft 437 kts 214°
2026-05-05 23:54 18.56222 -88.29645 35666 ft 422 kts 214°
2026-05-05 23:54 18.53788 -88.31356 35434 ft 420 kts 214°
2026-05-05 23:54 18.51359 -88.33056 35183 ft 418 kts 213°
2026-05-05 23:55 18.48838 -88.34565 34800 ft 417 kts 209°
2026-05-05 23:55 18.46293 -88.36016 34345 ft 416 kts 209°
2026-05-05 23:55 18.43754 -88.37467 33915 ft 414 kts 208°
2026-05-05 23:55 18.41230 -88.38911 33448 ft 412 kts 208°
2026-05-05 23:56 18.38718 -88.40349 32994 ft 410 kts 208°
2026-05-05 23:56 18.36224 -88.41777 32565 ft 407 kts 208°
2026-05-05 23:56 18.33741 -88.43196 32148 ft 404 kts 208°
2026-05-05 23:56 18.31317 -88.44583 31836 ft 399 kts 208°
2026-05-05 23:57 18.28891 -88.45964 31616 ft 395 kts 208°
2026-05-05 23:57 18.26482 -88.47332 31382 ft 392 kts 207°
2026-05-05 23:57 18.24094 -88.48695 31170 ft 389 kts 207°
2026-05-05 23:57 18.21720 -88.50055 30959 ft 387 kts 207°
2026-05-05 23:58 18.19326 -88.51425 30754 ft 400 kts 207°
2026-05-05 23:58 18.16829 -88.52846 30553 ft 414 kts 207°
2026-05-05 23:58 18.14314 -88.54274 30341 ft 406 kts 207°
2026-05-05 23:58 18.11854 -88.55673 30135 ft 398 kts 207°
2026-05-05 23:59 18.09448 -88.57047 29917 ft 390 kts 207°
2026-05-05 23:59 18.07075 -88.58405 29678 ft 387 kts 207°
2026-05-05 23:59 18.04718 -88.59747 29437 ft 384 kts 207°
2026-05-05 23:59 18.02410 -88.61059 29198 ft 382 kts 207°
2026-05-06 00:00 18.00076 -88.62384 28965 ft 380 kts 207°
2026-05-06 00:00 17.97759 -88.63703 28728 ft 378 kts 207°
2026-05-06 00:00 17.95453 -88.65021 28497 ft 376 kts 207°
2026-05-06 00:00 17.93157 -88.66331 28268 ft 375 kts 207°
2026-05-06 00:01 17.90869 -88.67627 28043 ft 373 kts 207°
2026-05-06 00:01 17.88590 -88.68917 27815 ft 372 kts 207°
2026-05-06 00:01 17.86323 -88.70207 27588 ft 369 kts 207°
2026-05-06 00:01 17.84074 -88.71488 27367 ft 367 kts 207°
2026-05-06 00:02 17.81828 -88.72762 27147 ft 366 kts 207°
2026-05-06 00:02 17.79594 -88.74032 26927 ft 365 kts 207°
2026-05-06 00:02 17.77367 -88.75298 26710 ft 363 kts 207°
2026-05-06 00:02 17.75151 -88.76551 26495 ft 361 kts 207°
2026-05-06 00:03 17.72976 -88.77776 26290 ft 359 kts 207°
2026-05-06 00:03 17.70777 -88.79017 26067 ft 359 kts 207°
2026-05-06 00:03 17.68584 -88.80253 25868 ft 357 kts 207°
2026-05-06 00:03 17.66410 -88.81483 25658 ft 355 kts 207°
2026-05-06 00:04 17.64239 -88.82719 25448 ft 354 kts 207°
2026-05-06 00:04 17.62081 -88.83945 25243 ft 352 kts 208°
2026-05-06 00:04 17.59931 -88.85167 25037 ft 351 kts 207°
2026-05-06 00:04 17.57785 -88.86383 24831 ft 350 kts 207°
2026-05-06 00:05 17.53535 -88.88793 24431 ft 346 kts 207°
2026-05-06 00:05 17.51416 -88.89994 24237 ft 346 kts 207°
2026-05-06 00:05 17.49305 -88.91187 24034 ft 343 kts 207°
2026-05-06 00:06 17.47231 -88.92351 23834 ft 343 kts 207°
2026-05-06 00:06 17.45132 -88.93529 23649 ft 341 kts 207°
2026-05-06 00:06 17.43050 -88.94701 23442 ft 339 kts 207°
2026-05-06 00:06 17.40969 -88.95875 23202 ft 340 kts 207°
2026-05-06 00:07 17.38892 -88.97050 22982 ft 338 kts 207°
2026-05-06 00:07 17.36850 -88.98204 22795 ft 329 kts 206°
2026-05-06 00:07 17.34827 -88.99347 22666 ft 331 kts 207°
2026-05-06 00:07 17.32847 -89.00468 22554 ft 315 kts 206°
2026-05-06 00:08 17.30970 -89.01529 22451 ft 299 kts 206°
2026-05-06 00:08 17.29185 -89.02539 22349 ft 286 kts 206°
2026-05-06 00:08 17.27453 -89.03515 22244 ft 280 kts 207°
2026-05-06 00:08 17.25740 -89.04477 22141 ft 278 kts 207°
2026-05-06 00:09 17.24617 -89.05108 22066 ft 277 kts 206°
2026-05-06 00:09 17.22924 -89.06060 21965 ft 275 kts 205°
2026-05-06 00:09 17.20694 -89.07314 21786 ft 274 kts 206°
2026-05-06 00:09 17.19022 -89.08255 21648 ft 271 kts 207°
2026-05-06 00:10 17.17364 -89.09186 21481 ft 271 kts 207°
2026-05-06 00:10 17.15706 -89.10120 21313 ft 271 kts 206°
2026-05-06 00:10 17.14583 -89.10753 21187 ft 270 kts 206°
2026-05-06 00:10 17.12955 -89.11670 20999 ft 269 kts 206°
2026-05-06 00:11 17.11318 -89.12590 20768 ft 267 kts 205°
2026-05-06 00:11 17.09681 -89.13506 20515 ft 267 kts 205°
2026-05-06 00:11 17.08049 -89.14424 20224 ft 266 kts 206°
2026-05-06 00:11 17.06431 -89.15340 19905 ft 264 kts 206°
2026-05-06 00:12 17.04822 -89.16244 19595 ft 261 kts 206°
2026-05-06 00:12 17.03222 -89.17134 19282 ft 259 kts 205°
2026-05-06 00:12 17.01632 -89.18013 18943 ft 258 kts 205°
2026-05-06 00:12 17.00062 -89.18879 18771 ft 253 kts 206°
2026-05-06 00:13 16.98510 -89.19738 18774 ft 253 kts 206°
2026-05-06 00:13 16.96949 -89.20603 18784 ft 252 kts 205°
2026-05-06 00:13 16.95438 -89.21443 18766 ft 241 kts 205°
2026-05-06 00:13 16.93994 -89.22244 18771 ft 237 kts 205°
2026-05-06 00:14 16.92537 -89.23047 18778 ft 236 kts 206°
2026-05-06 00:14 16.91089 -89.23844 18764 ft 235 kts 205°
2026-05-06 00:14 16.89642 -89.24643 18761 ft 235 kts 205°
2026-05-06 00:14 16.88193 -89.25442 18761 ft 235 kts 205°
2026-05-06 00:15 16.86746 -89.26241 18762 ft 235 kts 205°
2026-05-06 00:15 16.85320 -89.27031 18789 ft 227 kts 205°
2026-05-06 00:15 16.83951 -89.27793 18762 ft 220 kts 205°
2026-05-06 00:15 16.82603 -89.28542 18760 ft 219 kts 205°
2026-05-06 00:16 16.81258 -89.29285 18764 ft 219 kts 205°
2026-05-06 00:16 16.79913 -89.30028 18762 ft 218 kts 205°